Location: Unspecified
(51.3762°N, 0.0000°E)
Time: 16:43:00
(UTC+00:00)

SO-50 - Visible Passes

Search period start: 22 July 2019 00:00
Search period end: 01 August 2019 00:00
Orbit: 587 x 699 km, 64.6° (Epoch: 22 July)

Date Brightness Start Highest point End Pass type
(mag) Time Alt. Az. Time Alt. Az. Time Alt. Az.
22 Jul ? 00:51:32 10° SE 00:53:09 12° ESE 00:54:47 10° E visible
22 Jul ? 02:28:52 16° SSW 02:32:41 63° SE 02:37:36 10° NE visible
23 Jul ? 01:15:39 18° SSE 01:17:44 24° ESE 01:21:40 10° ENE visible
23 Jul ? 02:53:16 12° SW 02:57:47 71° NW 03:02:46 10° NE visible
24 Jul ? 01:40:00 25° S 01:42:30 47° ESE 01:47:15 10° NE visible
24 Jul ? 03:18:24 10° WSW 03:23:05 42° NW 03:27:49 10° NE visible
25 Jul ? 00:26:41 17° SE 00:27:40 18° ESE 00:30:55 10° ENE visible
25 Jul ? 02:04:18 22° SW 02:07:31 89° ESE 02:12:30 10° NE visible
26 Jul ? 00:50:58 29° SSE 00:52:21 35° ESE 00:56:50 10° NE visible
26 Jul ? 02:28:35 14° WSW 02:32:43 52° NW 02:37:35 10° NE visible
26 Jul ? 23:37:35 13° ESE 23:37:40 13° ESE 23:39:46 10° E visible
27 Jul ? 01:15:11 34° SSW 01:17:16 68° SE 01:22:12 10° NE visible
27 Jul ? 02:53:39 10° W 02:58:08 33° NNW 03:02:38 10° NNE visible
28 Jul ? 00:01:46 25° SE 00:02:15 26° ESE 00:06:19 10° ENE visible
28 Jul ? 01:39:23 23° WSW 01:42:23 67° NW 01:47:21 10° NE visible
28 Jul ? 03:19:43 10° WNW 03:23:43 24° NNW 03:27:43 10° NNE visible
29 Jul ? 00:25:55 41° SSE 00:27:04 50° SE 00:31:52 10° NE visible
29 Jul ? 02:03:31 12° WSW 02:07:43 40° NW 02:12:24 10° NE visible
29 Jul ? 23:12:24 19° ESE 23:12:24 19° ESE 23:15:39 10° ENE visible
30 Jul ? 00:50:00 35° SW 00:52:05 86° NW 00:57:05 10° NE visible
30 Jul ? 02:28:59 10° W 02:33:14 27° NNW 02:37:27 10° NNE visible
30 Jul ? 23:36:27 36° SE 23:36:55 37° ESE 23:41:28 10° NE visible
31 Jul ? 01:14:03 20° WSW 01:17:19 49° NW 01:22:10 10° NE visible
31 Jul ? 02:55:09 10° WNW 02:58:53 21° NNW 03:02:37 10° NNE visible
31 Jul ? 22:22:50 13° E 22:22:50 13° E 22:24:38 10° E visible
